Weather History for CYBW - December, 2012

Change the Weather History Date:

Tuesday, December 11, 2012

  Actual Average Record
Temperature  
Mean Temperature 24 °F -  
Max Temperature 37 °F 26 °F 46 °F (1997)
Min Temperature 10 °F 7 °F -29 °F (2000)
Degree Days  
Heating Degree Days 42    
Moisture  
Dew Point 16 °F    
Average Humidity 53    
Maximum Humidity 63    
Minimum Humidity 35    
Precipitation  
Precipitation 0.00 in - - ()
Sea Level Pressure  
Sea Level Pressure 29.51 in    
Wind  
Wind Speed 13 mph ()    
Max Wind Speed 23 mph    
Max Gust Speed 29 mph    
Visibility 15.5 miles    
Events      
Averages and records for this station are not official NWS values.
T = Trace of Precipitation, MM = Missing Value Source: Averaged Metar Reports

Daily Weather History Graph

Daily Weather History Graph

Search for Another Location

Airport or City:

Trip Planner

Search our weather history database for the weather conditions in past years. The results will help you decide how hot, cold, wet, or windy it might be!

Date:

Astronomy

Dec. 11, 2012 Rise Set
Actual Time 8:31 AM MST 4:30 PM MST
Civil Twilight 7:52 AM MST 5:09 PM MST
Nautical Twilight 7:09 AM MST 5:52 PM MST
Astronomical Twilight 6:29 AM MST 6:32 PM MST
Moon 6:25 AM MST (12/11) 3:17 PM MST (12/11)
Length of Visible Light 9h 17m
Length of Day
7h 58m
Waning Crescent, 4% of the Moon is Illuminated
Dec 11
Waning Crescent
Dec 13
New
Dec 19
First Quarter
Dec 28
Full
Jan 4
Last Quarter

Hourly Weather History & Observations

Time (MST) Temp. Windchill Dew Point Humidity Pressure Visibility Wind Dir Wind Speed Gust Speed Precip Events Conditions
5:00 AM 34 °F - 20 °F 44% 29.56 in 15 mi West 21.9 mph - -   Overcast
5:00 AM 33.8 °F 21.9 °F 19.4 °F 56% 29.56 in 15.0 mi West 21.9 mph - N/A   Overcast
6:00 AM 33.8 °F 29.6 °F 19.4 °F 56% 29.53 in 15.0 mi WSW 4.6 mph - N/A   Overcast
7:00 AM 30.2 °F 22.6 °F 17.6 °F 60% 29.54 in 15.0 mi WNW 8.1 mph - N/A   Overcast
8:00 AM 32.0 °F 22.5 °F 17.6 °F 55% 29.50 in 20.0 mi WSW 12.7 mph 21.9 mph N/A   Overcast
9:00 AM 30.2 °F 19.8 °F 15.8 °F 55% 29.53 in 30.0 mi West 13.8 mph - N/A   Mostly Cloudy
10:00 AM 33.8 °F 22.8 °F 17.6 °F 52% 29.53 in 30.0 mi West 18.4 mph - N/A   Mostly Cloudy
11:00 AM 35 °F - 17 °F 35% 29.52 in 28 mi West 20.7 mph - -   Mostly Cloudy
11:00 AM 35.6 °F 24.8 °F 17.6 °F 48% 29.52 in 30.0 mi West 19.6 mph 26.5 mph N/A   Mostly Cloudy
12:00 PM 35.6 °F 25.2 °F 17.6 °F 48% 29.49 in 30.0 mi West 18.4 mph 27.6 mph N/A   Mostly Cloudy
1:00 PM 35.6 °F 26.2 °F 17.6 °F 48% 29.49 in 30.0 mi WNW 15.0 mph 25.3 mph N/A   Mostly Cloudy
2:00 PM 37.4 °F 26.4 °F 17.6 °F 45% 29.47 in 30.0 mi WNW 23.0 mph 28.8 mph N/A   Mostly Cloudy
3:00 PM 33.8 °F 22.8 °F 17.6 °F 52% 29.46 in 30.0 mi West 18.4 mph - N/A   Mostly Cloudy
4:00 PM 30.2 °F 18.9 °F 15.8 °F 55% 29.47 in 30.0 mi West 16.1 mph - N/A   Mostly Cloudy
5:00 PM 27 °F - 14 °F 45% 29.49 in 25 mi West 10.4 mph - -   Partly Cloudy
5:00 PM 26.6 °F 16.8 °F 14.0 °F 59% 29.48 in 25.0 mi West 10.4 mph - N/A   Scattered Clouds
6:00 PM 23.0 °F 17.0 °F 12.2 °F 63% 29.51 in 15.0 mi ENE 4.6 mph - N/A   Scattered Clouds
7:00 PM 24.8 °F 16.1 °F 12.2 °F 59% 29.52 in 15.0 mi NW 8.1 mph - N/A   Scattered Clouds
8:00 PM 26.6 °F 17.5 °F 14.0 °F 59% 29.53 in 15.0 mi NNW 9.2 mph - N/A   Mostly Cloudy
9:00 PM 28.4 °F 24.6 °F 15.8 °F 59% 29.53 in 15.0 mi NNE 3.5 mph - N/A   Overcast
10:00 PM 23.0 °F 13.1 °F 12.2 °F 63% 29.41 in 15.0 mi NNW 9.2 mph - N/A   Mostly Cloudy